| time (UTC) | temp F | wind direction | speed MPH | gust MPH | rain 1hr in | rain 24hr in | rain mn in | humidity % | barometer mb |
| 20260505041537 | 56 | 103 | 3.0 | 8.0 | 0.00 | 0.00 | 0.00 | 84 | 1015.3 |
| 20260505040036 | 55 | 89 | 4.0 | 7.0 | 0.00 | 0.00 | 0.00 | 82 | 1015.1 |
| 20260505034535 | 56 | 108 | 1.0 | 7.0 | 0.00 | 0.00 | 0.00 | 82 | 1015.0 |
| 20260505033035 | 56 | 70 | 2.0 | 4.0 | 0.00 | 0.00 | 0.00 | 83 | 1014.9 |
| 20260505031538 | 56 | 86 | 3.0 | 9.0 | 0.00 | 0.00 | 0.00 | 82 | 1014.8 |
| 20260505030033 | 56 | 100 | 6.0 | 10.0 | 0.00 | 0.00 | 0.00 | 81 | 1014.8 |
| 20260505024532 | 57 | 143 | 3.0 | 9.0 | 0.00 | 0.00 | 0.00 | 80 | 1014.8 |
| 20260505023033 | 57 | 68 | 2.0 | 9.0 | 0.00 | 0.00 | 0.00 | 80 | 1014.8 |
| 20260505021535 | 58 | 109 | 5.0 | 10.0 | 0.00 | 0.00 | 0.00 | 80 | 1014.8 |
| 20260505020037 | 58 | 94 | 6.0 | 12.0 | 0.00 | 0.00 | 0.00 | 80 | 1014.8 |
| 20260505014530 | 58 | 93 | 6.0 | 13.0 | 0.00 | 0.00 | 0.00 | 79 | 1014.9 |
| 20260505013032 | 59 | 110 | 8.0 | 13.0 | 0.00 | 0.00 | 0.00 | 80 | 1014.9 |
| 20260505011535 | 59 | 122 | 6.0 | 12.0 | 0.00 | 0.00 | 0.00 | 79 | 1014.9 |
| 20260505010048 | 60 | 103 | 5.0 | 12.0 | 0.00 | 0.00 | 0.00 | 78 | 1014.9 |
| 20260505004528 | 61 | 144 | 5.0 | 12.0 | 0.00 | 0.00 | 0.00 | 77 | 1014.9 |
| 20260505003029 | 60 | 111 | 7.0 | 13.0 | 0.00 | 0.00 | 0.00 | 78 | 1014.9 |
| 20260505001527 | 61 | 114 | 5.0 | 12.0 | 0.00 | 0.00 | 0.00 | 76 | 1014.9 |
| 20260505000040 | 61 | 75 | 9.0 | 15.0 | 0.00 | 0.00 | 0.00 | 73 | 1014.9 |
| 20260504234526 | 61 | 76 | 6.0 | 14.0 | 0.00 | 0.00 | 0.00 | 72 | 1014.9 |
| 20260504233026 | 61 | 101 | 10.0 | 16.0 | 0.00 | 0.00 | 0.00 | 72 | 1014.8 |
| 20260504231524 | 61 | 114 | 9.0 | 16.0 | 0.00 | 0.00 | 0.00 | 72 | 1015.0 |
| 20260504230037 | 61 | 128 | 7.0 | 16.0 | 0.00 | 0.00 | 0.00 | 75 | 1015.1 |
| 20260504224524 | 61 | 111 | 7.0 | 13.0 | 0.00 | 0.00 | 0.00 | 76 | 1015.2 |
| 20260504223022 | 62 | 84 | 9.0 | 16.0 | 0.00 | 0.00 | 0.00 | 74 | 1015.3 |
| 20260504221538 | 62 | 74 | 8.0 | 14.0 | 0.00 | 0.00 | 0.00 | 72 | 1015.6 |
| 20260504220023 | 62 | 175 | 7.0 | 15.0 | 0.00 | 0.00 | 0.00 | 72 | 1015.6 |
| 20260504214520 | 61 | 130 | 8.0 | 15.0 | 0.00 | 0.00 | 0.00 | 74 | 1015.6 |
| 20260504213020 | 60 | 111 | 10.0 | 14.0 | 0.00 | 0.00 | 0.00 | 73 | 1015.9 |
| 20260504211519 | 60 | 78 | 9.0 | 14.0 | 0.00 | 0.00 | 0.00 | 74 | 1016.0 |
| 20260504210022 | 61 | 92 | 7.0 | 15.0 | 0.00 | 0.00 | 0.00 | 72 | 1016.0 |
| 20260504204519 | 60 | 80 | 6.0 | 13.0 | 0.00 | 0.00 | 0.00 | 69 | 1015.8 |
| 20260504203017 | 61 | 121 | 7.0 | 12.0 | 0.00 | 0.00 | 0.00 | 67 | 1015.8 |
| 20260504201517 | 61 | 106 | 5.0 | 11.0 | 0.00 | 0.00 | 0.00 | 65 | 1015.6 |
| 20260504200017 | 61 | 54 | 5.0 | 12.0 | 0.00 | 0.00 | 0.00 | 65 | 1015.6 |
| 20260504194517 | 62 | 84 | 6.0 | 15.0 | 0.00 | 0.00 | 0.00 | 62 | 1015.6 |
| 20260504193015 | 61 | 61 | 6.0 | 12.0 | 0.00 | 0.00 | 0.00 | 66 | 1015.7 |
| 20260504191522 | 61 | 74 | 6.0 | 13.0 | 0.00 | 0.00 | 0.00 | 65 | 1015.7 |
| 20260504190014 | 60 | 62 | 7.0 | 14.0 | 0.00 | 0.00 | 0.00 | 66 | 1015.7 |
| 20260504184517 | 60 | 82 | 5.0 | 14.0 | 0.00 | 0.00 | 0.00 | 67 | 1015.6 |
| 20260504183012 | 61 | 25 | 6.0 | 13.0 | 0.00 | 0.00 | 0.00 | 65 | 1015.6 |
| 20260504181516 | 61 | 70 | 6.0 | 12.0 | 0.00 | 0.00 | 0.00 | 64 | 1015.6 |
| 20260504180016 | 62 | 103 | 7.0 | 11.0 | 0.00 | 0.00 | 0.00 | 64 | 1015.7 |
| 20260504174509 | 62 | 94 | 6.0 | 10.0 | 0.00 | 0.00 | 0.00 | 64 | 1015.6 |
| 20260504173010 | 62 | 101 | 3.0 | 9.0 | 0.00 | 0.00 | 0.00 | 65 | 1015.6 |
| 20260504171507 | 61 | 55 | 4.0 | 11.0 | 0.00 | 0.00 | 0.00 | 65 | 1015.6 |
| 20260504081505 | 47 | 273 | 0.0 | 0.0 | 0.00 | 0.00 | 0.00 | 91 | 1015.7 |